Weather History for KMSP - May, 2014

Change the Weather History Date:

Thursday, May 29, 2014

  Actual Average Record
Temperature  
Mean Temperature 71 °F 63 °F  
Max Temperature 84 °F 73 °F 94 °F (2006)
Min Temperature 57 °F 53 °F 33 °F (1965)
Degree Days  
Heating Degree Days 0 4  
Month to date heating degree days 244 210  
Since 1 July heating degree days 8576 7528  
Cooling Degree Days 6 2  
Month to date cooling degree days 29 34  
Year to date cooling degree days 29 39  
Growing Degree Days 20 (Base 50)    
Moisture  
Dew Point 49 °F    
Average Humidity 56    
Maximum Humidity 87    
Minimum Humidity 24    
Precipitation  
Precipitation 0.00 in 0.10 in 2.49 in (1942)
Month to date precipitation 3.90 3.13  
Year to date precipitation 13.82 9.35  
Snow  
Snow 0.00 in 0.00 in 0.00 in ()
Month to date snowfall 0.0 0.0  
Since 1 July snowfall 69.8 54.4  
Snow Depth 0.00 in    
Sea Level Pressure  
Sea Level Pressure 30.08 in    
Wind  
Wind Speed 7 mph (ESE)    
Max Wind Speed 15 mph    
Max Gust Speed 23 mph    
Visibility 10 miles    
Events      
T = Trace of Precipitation, MM = Missing Value Source: NWS Daily Summary

Daily Weather History Graph

Daily Weather History Graph

Search for Another Location

Airport or City:

Trip Planner

Search our weather history database for the weather conditions in past years. The results will help you decide how hot, cold, wet, or windy it might be!

Date:

Astronomy

May. 29, 2014 Rise Set
Actual Time 5:31 AM CDT 8:49 PM CDT
Civil Twilight 4:55 AM CDT 9:25 PM CDT
Nautical Twilight 4:09 AM CDT 10:12 PM CDT
Astronomical Twilight 3:11 AM CDT 11:10 PM CDT
Moon 6:28 AM CDT 9:37 PM CDT
Length of Visible Light 16h 29m
Length of Day
15h 17m
New Moon, 1% of the Moon is Illuminated
May 29
New Moon
Jun 5
First Quarter
Jun 12
Full
Jun 19
Last Quarter
Jun 27
New

Hourly Weather History & Observations

Time (CDT) Temp. Dew Point Humidity Pressure Visibility Wind Dir Wind Speed Gust Speed Precip Events Conditions
12:53 AM 64.4 °F 53.6 °F 68% 30.08 in 10.0 mi NNE 5.8 mph - N/A   Clear
1:53 AM 63.0 °F 55.0 °F 75% 30.06 in 10.0 mi NE 3.5 mph - N/A   Clear
2:53 AM 62.6 °F 55.4 °F 77% 30.08 in 10.0 mi Calm Calm - N/A   Clear
3:53 AM 59.0 °F 55.9 °F 90% 30.09 in 10.0 mi Calm Calm - N/A   Clear
4:53 AM 60.1 °F 53.1 °F 78% 30.10 in 10.0 mi Calm Calm - N/A   Clear
5:53 AM 59.0 °F 52.0 °F 78% 30.12 in 10.0 mi Calm Calm - N/A   Partly Cloudy
6:53 AM 61.0 °F 53.1 °F 75% 30.12 in 10.0 mi ESE 8.1 mph - N/A   Partly Cloudy
7:53 AM 64.9 °F 52.0 °F 63% 30.12 in 10.0 mi SE 6.9 mph - N/A   Partly Cloudy
8:53 AM 68.0 °F 50.0 °F 52% 30.12 in 10.0 mi SSE 8.1 mph - N/A   Partly Cloudy
9:53 AM 72.0 °F 46.9 °F 41% 30.12 in 10.0 mi SSE 9.2 mph - N/A   Partly Cloudy
10:53 AM 73.9 °F 48.9 °F 41% 30.12 in 10.0 mi SE 8.1 mph - N/A   Partly Cloudy
11:53 AM 77.0 °F 48.9 °F 37% 30.11 in 10.0 mi SE 9.2 mph - N/A   Partly Cloudy
12:53 PM 79.0 °F 48.0 °F 34% 30.10 in 10.0 mi ESE 6.9 mph 23.0 mph N/A   Partly Cloudy
1:53 PM 81.0 °F 44.1 °F 27% 30.09 in 10.0 mi ESE 12.7 mph - N/A   Partly Cloudy
2:53 PM 81.0 °F 48.0 °F 31% 30.07 in 10.0 mi East 8.1 mph - N/A   Partly Cloudy
3:53 PM 82.0 °F 44.1 °F 26% 30.06 in 10.0 mi East 6.9 mph - N/A   Scattered Clouds
5:53 PM 82.9 °F 43.0 °F 24% 30.04 in 10.0 mi ESE 9.2 mph - N/A   Scattered Clouds
6:53 PM 82.0 °F 44.1 °F 26% 30.04 in 10.0 mi SE 11.5 mph - N/A   Scattered Clouds
7:53 PM 81.0 °F 44.1 °F 27% 30.04 in 10.0 mi SE 8.1 mph - N/A   Partly Cloudy
8:53 PM 77.0 °F 43.0 °F 30% 30.04 in 10.0 mi SE 6.9 mph - N/A   Partly Cloudy
9:53 PM 75.0 °F 43.0 °F 32% 30.05 in 10.0 mi ESE 8.1 mph - N/A   Partly Cloudy
10:53 PM 73.0 °F 45.0 °F 37% 30.06 in 10.0 mi ESE 6.9 mph - N/A   Clear
11:53 PM 70.0 °F 46.9 °F 44% 30.06 in 10.0 mi ESE 4.6 mph - N/A   Clear